User: anonymous   Login
Location: Anuling
(14.1239°N, 120.8922°E)
Time: 09:30:21
(UTC+00:00)
Language:

NOAA 6 - Orbit

View from above orbital plane
View from above orbital plane
View from above satellite
View from above satellite

Ground track
Ground track

The orbit is defined by the following mean orbital elements,

1 11416U          26072.94300719 +.00000000 +00000-0 +13340-3 0 00000
2 11416  98.5745 103.0708 0009981 174.2644 185.8658 14.35437115    02
Epoch (UTC): 13 March 2026 22:37:55
Eccentricity: 0.0009981
inclination: 98.5745°
perigee height: 766 km
apogee height: 781 km
right ascension of ascending node: 103.0708°
argument of perigee: 174.2644°
revolutions per day: 14.35437115
mean anomaly at epoch: 185.8658°

The dashed part of the orbit path shows where the satellite is in the earth's shadow,  

DLR